Tracking 30995 objects as of 7-Jul-2025
HD Live streaming from Space Station
objects crossing your sky now

STARLINK-5300

Track STARLINK-5300 now!
10-day predictions
STARLINK-5300 is classified as:


NORAD ID: 55676
Int'l Code: 2023-021BA
Perigee: 577.2 km
Apogee: 581.1 km
Inclination: 70.0 °
Period: 96.1 minutes
Semi major axis: 6950 km
RCS: Unknown
Launch date: February 17, 2023
Source: United States (US)
Launch site: AIR FORCE WESTERN TEST RANGE (AFWTR)
Your satellite tracking list
FENGYUN 1C DEB
Track 1 satellite(s)




NASA's NSSDC Master Catalog

Two Line Element Set (TLE):
1 55676U 23021BA  25187.85837232  .00000320  00000-0  34625-4 0  9997
2 55676  69.9995  44.3240 0002788 261.0433  99.0411 14.98342082132651
Source of the keplerian elements: AFSPC